STARLINK-33618 (63374 NORAD) Tracking and Keplerian Element Data

This shows tracking and keplerian element data for the satellite.

Feedback or suggestion? Click here.




ElementValue
Catalog63374
NameSTARLINK-33618
Epoch Orbit4262
Epoch Day354.18253191
Epoch Year2025
RAAN59.1316
Inclination53.1596
Eccentricity0.0001736
Argument of Perigee95.901
Mean Anonmoly264.2189
Mean Motion15.30202892
Decay Rate0.00016972
L11 63374U 25063M 25354.18253191 .00016972 00000+0 58378-3 0 9996
L22 63374 53.1596 59.1316 0001736 95.9010 264.2189 15.30202892 42628



Live tracking and technical data element details for STARLINK-33618 (NORAD 63374). STARLINK-33618 can be tracked NOW for your location showing map with azimuth and elevation plus other details from your city location.







IsCatalogInMostPopularTable: catalog: 63374, numindb: 2
Update: records affected: 1



GetName: 63374 STARLINK-33618

Hit Count: updated at: Tue, 10 Feb 2026 02:09:13 GMT